Home > Weather > Wörgl > Past weeks

Flag for Austria Weather for the Past 2 Weeks in Wörgl, Tyrol, Austria

Now
47 °F

Cool.


Feels Like: 47 °F
Forecast: 37 / 53 °F
Wind: 2 mph from Southwest

Location: Kufstein

Current Time: May 3, 2016 at 4:15:42 AM

Latest Report: May 3, 2016 at 2:00 AM


Visibility: N/A

Pressure: 30.14 "Hg (28.32 "Hg at 514m altitude)

Humidity: 92%

Dew Point: 45 °F

Location of WörglLocation

Historic Weather in Wörgl — Graph

°F

Wörgl Temperature Yesterday

Maximum temperature yesterday: 50 °F (at 7:00 PM)
Minimum temperature yesterday: 46 °F (at 6:00 AM)
Average temperature yesterday: 48 °F

High & Low Weather Summary for the Past Weeks

 TemperatureHumidityPressure
High68 °F (Apr 22, 4:00 PM)96% (Apr 19, 2:00 AM)30.39 "Hg (Apr 19, 2:00 AM)
Low33 °F (Apr 26, 4:00 AM)28% (Apr 29, 4:00 PM)29.61 "Hg (Apr 26, 3:00 PM)
Average49 °F70%30.01 "Hg
* Reported Apr 18 2:00 AM — May 3 2:00 AM, Wörgl, Weather by CustomWeather, © 2016

Note: Actual official high and low records may vary slightly from our data, if they occured in-between our weather recording intervals... More about our weather records

Advertising

Wörgl Weather History for the Previous 24 Hours

Scroll right to see more
 ConditionsComfort  
Time TempWeatherWind HumidityBarometerVisibility
2:00 AM
Tue, May 3
47 °FCool.2 mph92%30.14 "HgN/A
1:00 AM47 °FCool.3 mph93%30.15 "HgN/A
10:00 PM
Mon, May 2
48 °FCool.1 mph90%30.16 "HgN/A
9:00 PM49 °FCool.1 mph89%30.15 "HgN/A
8:00 PM50 °FCool.1 mph85%30.14 "HgN/A
7:00 PM50 °FCool.2 mph82%30.14 "HgN/A
6:00 PM50 °FCool.2 mph83%30.14 "HgN/A
5:00 PM50 °FCool.No wind84%30.16 "HgN/A
4:00 PM50 °FCool.1 mph82%30.16 "HgN/A
3:00 PM50 °FCool.1 mph80%30.16 "HgN/A
2:00 PM49 °FCool.2 mph80%30.17 "HgN/A
1:00 PM48 °FCool.2 mph85%30.17 "HgN/A
12:00 PM47 °FCool.2 mph88%30.19 "HgN/A
10:00 AM47 °FFog.2 mph89%30.17 "HgN/A
9:00 AM46 °FFog.2 mph92%30.17 "HgN/A
8:00 AM46 °FCool.No wind96%30.16 "HgN/A
6:00 AM46 °FFog.1 mph95%30.15 "HgN/A
Weather by CustomWeather, © 2016

See weather overviewHow to use our weather pages